Gallivare, Sweden

12:07 PM CET on January 18, 2017 (GMT +0100)
Gallivare

Weather History for ESNG - February, 2014

Change the Weather History Date:

Wednesday, February 5, 2014

  Actual Average Record
Temperature  
Mean Temperature 18 °F -  
Max Temperature 24 °F - - ()
Min Temperature 11 °F - - ()
Degree Days  
Heating Degree Days 48    
Moisture  
Dew Point 20 °F    
Average Humidity 94    
Maximum Humidity 100    
Minimum Humidity 87    
Precipitation  
Precipitation 0.00 in - - ()
Sea Level Pressure  
Sea Level Pressure 29.75 in    
Wind  
Wind Speed 3 mph ()    
Max Wind Speed 5 mph    
Max Gust Speed -    
Visibility 6.8 miles    
Events Fog , Snow    
T = Trace of Precipitation, MM = Missing Value Source: Averaged Metar Reports

Daily Weather History Graph

Daily Weather History Graph

Search for Another Location

Airport or City:

Trip Planner

Search our weather history database for the weather conditions in past years. The results will help you decide how hot, cold, wet, or windy it might be!

Date:

Astronomy

Feb. 05, 2014 Rise Set
Actual Time 8:29 AM CET 3:14 PM CET
Civil Twilight 7:25 AM CET 4:19 PM CET
Nautical Twilight 6:19 AM CET 5:24 PM CET
Astronomical Twilight 5:17 AM CET 6:27 PM CET
Moon 8:29 AM CET (2/5) No Moon Set
Length of Visible Light 8h 53m
Length of Day
6h 44m
Waxing Crescent, 36% of the Moon is Illuminated
Feb 5
Waxing Crescent
Feb 6
First Quarter
Feb 15
Full
Feb 22
Last Quarter
Mar 1
New

Hourly Weather History & Observations

Time (CET) Temp. Windchill Dew Point Humidity Pressure Visibility Wind Dir Wind Speed Gust Speed Precip Events Conditions
12:20 AM 15.8 °F 8.6 °F 14.0 °F 93% 29.83 in 0.2 mi East 4.6 mph - N/A Fog Light Freezing Fog
12:50 AM 17.6 °F 12.3 °F 15.8 °F 93% 29.83 in 0.8 mi East 3.5 mph - N/A   Mostly Cloudy
1:00 AM 17 °F - 15 °F 87% 29.90 in 1 mi NE 2.2 mph - - Fog Fog
1:20 AM 17.6 °F 10.7 °F 15.8 °F 93% 29.83 in 3.7 mi East 4.6 mph - N/A   Unknown
1:50 AM 17.6 °F 12.3 °F 15.8 °F 93% 29.83 in - East 3.5 mph - N/A   Partly Cloudy
2:20 AM 17.6 °F 12.3 °F 15.8 °F 93% 29.83 in - ESE 3.5 mph - N/A   Mist
2:50 AM 17.6 °F 12.3 °F 15.8 °F 93% 29.80 in 6.2 mi ESE 3.5 mph - N/A   Partly Cloudy
3:20 AM 17.6 °F 12.3 °F 15.8 °F 93% 29.80 in 6.2 mi East 3.5 mph - N/A   Unknown
3:50 AM 17.6 °F 12.3 °F 15.8 °F 93% 29.80 in 6.2 mi Variable 3.5 mph - N/A   Unknown
4:00 AM 17 °F - 16 °F 93% 29.88 in 17 mi NE 2.2 mph - -   Clear
4:20 AM 17.6 °F 12.3 °F 17.6 °F 100% 29.80 in 6.2 mi East 3.5 mph - N/A   Unknown
4:50 AM 19.4 °F 14.3 °F 17.6 °F 93% 29.80 in 6.2 mi East 3.5 mph - N/A   Overcast
5:20 AM 19.4 °F 14.3 °F 17.6 °F 93% 29.80 in 6.2 mi East 3.5 mph - N/A   Overcast
5:50 AM 19.4 °F 14.3 °F 17.6 °F 93% 29.80 in 6.2 mi ESE 3.5 mph - N/A   Overcast
6:20 AM 19.4 °F - 17.6 °F 93% 29.77 in 6.2 mi SE 2.3 mph - N/A   Mostly Cloudy
6:50 AM 19.4 °F - 17.6 °F 93% 29.77 in 6.2 mi Variable 2.3 mph - N/A   Mostly Cloudy
7:00 AM 21 °F - 20 °F 95% 29.84 in 31 mi ESE 2.2 mph - -   Clear
7:20 AM 19.4 °F - 19.4 °F 100% 29.77 in 6.2 mi East 2.3 mph - N/A   Mostly Cloudy
7:50 AM 19.4 °F 14.3 °F 19.4 °F 100% 29.77 in 6.2 mi East 3.5 mph - N/A   Overcast
8:20 AM 19.4 °F 14.3 °F 19.4 °F 100% 29.77 in 6.2 mi East 3.5 mph - N/A   Overcast
8:50 AM 21.2 °F 16.4 °F 19.4 °F 93% 29.77 in 6.2 mi East 3.5 mph - N/A   Overcast
9:20 AM 21.2 °F - 19.4 °F 93% 29.74 in 6.2 mi ESE 2.3 mph - N/A   Overcast
9:50 AM 21.2 °F - 19.4 °F 93% 29.74 in 6.2 mi Calm Calm - N/A   Ice Crystals
10:00 AM 23 °F - 21 °F 91% 29.82 in 14 mi SE 2.2 mph - -  
10:20 AM 21.2 °F - 21.2 °F 100% 29.77 in 6.2 mi East 1.2 mph - N/A   Ice Crystals
10:50 AM 23.0 °F - 21.2 °F 93% 29.77 in 6.2 mi Calm Calm - N/A Snow Snow Grains
11:20 AM 23.0 °F - 23.0 °F 100% 29.74 in 6.2 mi Calm Calm - N/A Snow Snow Grains
1:00 PM 24 °F - 23 °F 93% 29.80 in 16 mi SE 2.2 mph - -   Clear
2:20 PM 23.0 °F - 23.0 °F 100% 29.71 in 6.2 mi Variable 2.3 mph - N/A   Mostly Cloudy
2:50 PM 24.8 °F - 23.0 °F 93% 29.71 in 6.2 mi ENE 2.3 mph - N/A   Mostly Cloudy
3:20 PM 23.0 °F - 23.0 °F 100% 29.71 in 6.2 mi Variable 1.2 mph - N/A   Overcast
3:50 PM 24.8 °F - 23.0 °F 93% 29.71 in 6.2 mi ENE 2.3 mph - N/A   Overcast
4:00 PM 24 °F - 23 °F 94% 29.78 in 17 mi SE 2.2 mph - -  
4:20 PM 24.8 °F 20.5 °F 23.0 °F 93% 29.71 in 6.2 mi East 3.5 mph - N/A   Overcast
4:50 PM 24.8 °F - 23.0 °F 93% 29.71 in 6.2 mi Calm Calm - N/A   Overcast
5:20 PM 24.8 °F 20.5 °F 23.0 °F 93% 29.68 in 6.2 mi East 3.5 mph - N/A   Overcast
5:50 PM 23.0 °F - 23.0 °F 100% 29.68 in 6.2 mi ESE 2.3 mph - N/A   Overcast
6:20 PM 24.8 °F - 23.0 °F 93% 29.68 in 6.2 mi Variable 2.3 mph - N/A   Overcast
6:50 PM 24.8 °F 20.5 °F 23.0 °F 93% 29.68 in 6.2 mi Variable 3.5 mph - N/A   Overcast
7:00 PM 24 °F - 23 °F 95% 29.76 in 12 mi South 2.2 mph - -  
7:20 PM 24.8 °F - 23.0 °F 93% 29.68 in 6.2 mi South 2.3 mph - N/A   Overcast
7:50 PM 24.8 °F 20.5 °F 23.0 °F 93% 29.68 in 6.2 mi SSE 3.5 mph - N/A   Overcast
8:20 PM 23.0 °F 18.4 °F 23.0 °F 100% 29.68 in 6.2 mi SE 3.5 mph - N/A   Overcast
8:50 PM 24.8 °F - 23.0 °F 93% 29.68 in 6.2 mi SE 2.3 mph - N/A   Overcast
9:20 PM 24.8 °F - 23.0 °F 93% 29.68 in 6.2 mi SSE 2.3 mph - N/A   Overcast
9:50 PM 24.8 °F 20.5 °F 23.0 °F 93% 29.68 in 6.2 mi SSE 3.5 mph - N/A   Overcast
10:00 PM 24 °F - 23 °F 95% 29.74 in 7 mi South 2.2 mph - -  
10:20 PM 24.8 °F 19.1 °F 23.0 °F 93% 29.68 in 6.2 mi SSE 4.6 mph - N/A   Overcast
10:50 PM 24.8 °F 20.5 °F 23.0 °F 93% 29.68 in 6.2 mi South 3.5 mph - N/A   Overcast
11:20 PM 24.8 °F 20.5 °F 23.0 °F 93% 29.68 in 6.2 mi South 3.5 mph - N/A   Overcast
11:50 PM 23.0 °F 17.0 °F 23.0 °F 100% 29.68 in 6.2 mi South 4.6 mph - N/A   Overcast